Location: Arclight Observatory
(36.5667°N, 87.3333°W)
Time: 04:57:29
(UTC-06:00)

Daily predictions for brighter satellites

Satellite Brightness Start Highest point End
(mag) Time Altitude Azimuth Time Altitude Azimuth Time Altitude Azimuth
Cosmos 2333 Rocket 3.9 03:50:14 27° ESE 03:50:14 27° ESE 03:52:59 10° SE
Cosmos 2219 Rocket 3.9 04:11:11 23° SSE 04:11:11 23° SSE 04:13:07 10° SSE
CZ-3 R/B 4.2 04:30:34 33° WSW 04:34:36 35° SW 04:43:42 10° SSE
Cosmos 2237 Rocket 2.1 04:36:10 80° SSE 04:36:10 80° SSE 04:41:32 10° SSE
USA 229 DEB 4.3 04:33:34 29° N 04:37:08 55° NE 04:44:13 10° SE
USA 229 4.3 04:33:38 29° N 04:37:14 55° NE 04:44:18 10° SE
SL-16 R/B 3.3 04:35:44 21° N 04:39:03 40° ENE 04:44:21 10° SE
Tsikada Rocket 4.1 04:35:04 10° N 04:41:29 78° E 04:47:46 10° S
Meteor 2-17 Rocket 4.2 04:36:07 10° SSW 04:42:27 73° NW 04:48:12 10° N
Cosmos 2297 Rocket 2.5 04:46:57 52° NNW 04:46:57 52° NNW 04:51:24 10° NNE
Aureole 2 Rocket 3.3 04:57:16 49° NNE 04:58:09 63° ENE 05:02:16 10° SSE
Cosmos 2227 Rocket 3.4 05:00:40 26° NNW 05:00:40 26° NNW 05:03:30 10° N
Cosmos 540 Rocket 3.3 04:58:35 60° NW 04:59:30 80° WSW 05:04:36 10° SSE
OAO 2 Rocket 3.2 05:04:02 61° WSW 05:04:47 75° S 05:09:42 10° E
Cosmos 1725 Rocket 4.0 04:59:37 10° SSW 05:05:41 53° W 05:11:50 10° N
ISS -1.2 05:06:00 20° NNE 05:06:00 20° NNE 05:08:28 10° E
Cosmos 1864 Rocket 4.5 05:00:15 10° SSW 05:06:11 53° W 05:12:12 10° N
SKYMED 2 3.6 05:03:11 10° SSE 05:07:30 81° ENE 05:09:51 27° N
Meteor 1-28 Rocket 4.2 05:04:02 10° SSE 05:07:38 44° ENE 05:10:38 14° N
Cosmos 304 Rocket 4.3 05:05:04 18° N 05:08:29 58° ENE 05:13:10 10° SSE
SL-24 R/B 4.4 05:04:06 10° N 05:08:56 83° WNW 05:14:40 10° SSW
OE (NEXTSAT) 4.4 05:10:23 77° E 05:10:23 77° E 05:13:45 10° ESE
Meteor 1-4 Rocket 2.6 05:07:13 10° S 05:10:52 81° E 05:14:38 10° N
Meteor 1-21 Rocket 4.4 05:10:32 45° WNW 05:11:09 47° W 05:16:27 10° SSW
CZ-4 R/B 3.7 05:18:06 10° NE 05:21:33 26° E 05:25:01 10° SSE
Cosmos 1674 4.4 05:24:02 19° SW 05:24:02 19° SW 05:25:24 10° SSW
USA 234 4.3 05:16:06 10° E 05:22:01 38° NNE 05:27:25 12° NNW
Cosmos 1980 4.4 05:22:40 31° WSW 05:22:40 31° WSW 05:27:27 10° SSW
PSLV R/B 3.4 05:29:54 39° SW 05:30:59 68° SSE 05:34:20 10° ENE
Cosmos 2333 Rocket 3.5 05:32:20 20° WSW 05:32:20 20° WSW 05:35:32 10° SSW
Cosmos 2221 3.1 05:30:28 10° S 05:34:44 59° E 05:39:00 10° NNE
Ariane Rocket 2.9 05:30:28 10° N 05:35:34 77° WNW 05:40:40 10° SSW
TELKOM 3 3.1 05:36:34 63° NW 05:36:41 64° NW 05:38:58 10° NE
Cosmos 1461 4.3 05:40:27 20° WSW 05:40:27 20° WSW 05:43:01 10° SSW
CSL-04 Debris 4.3 05:35:25 10° NNE 05:40:56 83° ESE 05:46:24 10° SSW
Cosmos 1743 Rocket 4.4 05:46:43 22° NW 05:48:28 28° W 05:52:14 10° SSW
Cosmos 1328 4.0 05:45:28 12° NNW 05:49:01 45° W 05:52:49 10° SSW
Cosmos 2058 2.8 05:50:29 10° N 05:54:37 78° W 05:58:44 10° S
COSMO-SKYMED 1 3.5 05:51:56 10° SSW 05:55:37 27° W 05:58:24 15° NW
Cosmos 1842 Rocket 4.4 05:52:02 10° SW 05:55:39 26° WNW 05:59:20 10° NNW
PAYLOAD A 3.9 05:58:04 10° N 06:03:05 69° WNW 06:07:53 10° SSW
CZ-2C R/B 2.3 06:00:41 10° NNE 06:05:18 83° ESE 06:09:52 10° S
Cosmos 968 Rocket 4.3 06:02:45 10° WSW 06:07:16 28° WNW 06:11:48 10° N
Cosmos 2227 4.2 06:02:39 10° SW 06:08:10 58° WNW 06:13:42 10° NNE
Cosmos 1805 Rocket 3.6 06:03:49 10° N 06:08:16 85° E 06:12:38 10° S
Helios 1B rocket 3.5 06:06:43 10° SSE 06:10:39 47° ENE 06:14:36 10° N
CSL-04 Rocket 3.9 06:06:36 10° N 06:11:34 43° WNW 06:16:31 10° SW
Cosmos 2151 3.6 06:08:21 10° NNW 06:12:10 33° W 06:15:58 10° SSW
Genesis I 3.7 06:09:30 10° NNW 06:13:23 59° ENE 06:17:15 10° SE
Cosmos 2034 Rocket 3.9 06:07:28 10° S 06:13:37 78° W 06:19:52 10° N
SMAP 3.1 06:10:16 10° NNE 06:14:57 90° NW 06:19:36 10° SSW
Cosmos 773 Rocket 4.0 06:13:14 10° NNW 06:18:31 68° WSW 06:23:45 10° S
SJ-7 4.3 06:14:52 10° N 06:18:53 81° WNW 06:22:55 10° SSW
Cosmos 1356 Rocket 3.3 06:15:48 10° N 06:19:55 83° W 06:24:03 10° S
Cosmos 1703 3.2 06:17:13 10° NNW 06:21:07 64° W 06:24:59 10° S
GPS 2-05 Rocket1 2.9 06:18:02 10° WSW 06:21:17 70° S 06:24:39 10° E
Milstar 3 Cent rocket 4.4 06:17:18 10° SW 06:22:11 21° SSE 06:25:54 10° ESE
SL-16 R/B 3.3 06:18:22 10° NW 06:22:53 25° WSW 06:27:22 10° SSW
Tiangong 2 2.8 06:21:47 10° SW 06:24:40 34° SSE 06:27:34 10° E
Nadezhda 4 Rocket 4.2 06:20:31 10° N 06:26:53 82° E 06:33:10 10° S
Cosmos 1340 Rocket 3.7 06:27:39 10° NNW 06:31:01 27° W 06:34:23 10° SSW
SPOT 3 Rocket 3.6 06:27:47 10° N 06:33:00 76° WNW 06:38:12 10° SSW
Cosmos 2344 3.8 06:26:01 10° SSW 06:33:43 83° ESE 06:42:04 10° NNE
Sich 1 3.0 06:31:16 10° N 06:35:36 73° W 06:39:54 10° S
Cosmos 1633 Rocket 3.0 06:32:04 10° N 06:36:26 83° W 06:40:46 10° S
